Location: Corona
(40.7470°N, 73.8601°W)
Time: 21:38:42
(UTC+00:00)

SAR-Lupe-2 - Pass Details

Date: 22 September 2019
Orbit: 481 x 485 km, 98.2° (Epoch: 07 October)

Event Time Altitude Azimuth Distance (km) Brightness Sun altitude
Rises 23:50:08 0° 19° (NNE) 2,556 7.1 -11.6°
Reaches altitude 10° 23:52:16 10° 26° (NNE) 1,670 6.1 -12.0°
Maximum altitude 23:55:43 44° 100° (E) 677 3.8 -12.6°
Drops below altitude 10° 23:59:07 10° 174° (S) 1,653 6.1 -13.3°
Sets 00:01:14 0° 180° (S) 2,527 7.1 -13.7°
